星链-5774 (STARLINK-5774 )

导读

STARLINK-5774是美国太空探索技术公司 SpaceX 发射的星链卫星,属于Starlink Group项目,于2023年3月24日在美国佛罗里达州卡纳维拉尔角太空军基地发射升空,该卫星为低轨卫星,旨在为全球提供高速低延迟互联网服务,星链计划目前已完成多批次卫星发射,持续扩充星座规模。

基本信息
目录编号:
56029
目录名称:
STARLINK-5774
国际标识:
2023-042AV
轨道中心:
EARTH
卫星名称:
星链-5774
卫星全名:
星链-5774 (STARLINK-5774 )
卫星状态:
在轨 (已飞行1179 天)
发射日期:
2023-03-24 UTC
国别 :
美国 (US)
星等 :
--
轨道信息
数据来源 国际轨道数据
星历时间: 2026-06-14T18:16:53+0800
14小时前
查看轨道信息
半长轴: 6861.194km
偏心率: 0.0001486
轨道倾角: 43.000°
近地点辐角 268.232°
升交点赤经 218.618°
平近点角 91.836°
近地点: 482.037km
远地点: 484.077km
周期: 94.267分钟
每日圈数: 15.275776
详细信息
固有亮度:
5
最大亮度:
2.5
卫星平台:
Starlink v1.5
覆盖范围:
全球
运营商:
太空探索技术公司
运营商所在国:
美国
制造商(研发单位):
太空探索技术公司
制造商所在国:
美国
使用方式:
暂无
卫星简介
星链(Starlink)计划是由太空探索技术公司(SpaceX)提出的一个巨型低轨卫星互联网星座项目,计划在2019年至2024年间在太空搭建由约1.2万颗卫星组成的“星链”网络,其中1584颗将部署在地球上空550千米处的近地轨道,并从2020年开始工作。该卫星仍在工作。
2D轨道图
3D轨道图
轨道高度分析图
轨道倾角分析图
轨道综合分析图
查看轨道综合分析图